Vorticity
nan nan nan nan nan nan nan nan nan nan nan nan nan nan nan nan nan nan nan nan nan nan nan nan nan nan nan nan nan nan nan nan nan nan nan nan nan nan nan nan nan nan nan
nan 11 9 7 6 5 4 4 4 5 4 5 4 5 5 5 5 5 5 4 5 5 3 4 5 5 5 6 6 5 5 6 5 3 3 3 6 8 6 3 4 7 nan
nan 14 12 8 5 6 6 5 5 4 4 4 4 5 5 4 4 4 5 5 5 5 6 5 4 4 4 4 4 5 5 5 4 3 2 4 6 8 6 4 4 6 nan
nan 13 17 8 5 6 6 6 5 4 4 4 6 4 6 4 3 4 4 5 5 8 9 4 4 3 3 4 5 4 4 3 4 4 4 7 6 4 5 5 5 5 nan
nan 11 15 10 5 5 6 7 5 5 4 4 5 4 5 4 5 4 3 4 7 10 6 4 5 4 4 4 3 3 2 4 11 8 5 6 7 6 5 5 6 6 nan
nan 8 14 13 6 5 6 6 7 6 5 5 5 5 4 5 4 5 6 6 8 8 5 5 4 4 4 4 4 2 2 5 11 10 7 6 7 7 6 5 5 5 nan
nan 6 10 15 12 7 5 5 7 7 7 6 5 5 5 6 5 6 7 6 8 6 5 5 4 4 3 4 4 3 2 6 7 6 6 6 8 7 5 5 5 5 nan
nan 6 4 11 17 10 7 6 6 7 7 6 6 7 7 6 5 5 6 8 7 5 4 4 5 4 4 4 3 3 3 4 7 7 5 7 9 6 5 4 5 5 nan
nan 7 6 5 10 14 11 8 7 6 6 6 5 6 7 6 6 6 6 7 7 5 4 6 6 5 4 3 3 4 4 3 5 6 6 8 9 5 4 4 4 5 nan
nan 5 6 6 6 9 11 12 9 8 7 7 6 6 7 8 7 7 7 8 8 7 6 6 6 5 4 4 5 5 5 4 5 6 6 9 9 5 4 4 4 4 nan
nan 5 6 6 6 5 8 11 13 10 9 9 8 9 7 7 9 8 9 10 9 8 6 6 5 5 6 8 7 5 6 6 6 6 10 10 7 4 4 4 4 4 nan
nan 7 6 6 6 7 7 7 11 13 11 9 9 8 7 7 8 9 10 10 9 8 8 7 6 6 4 6 9 8 7 7 7 7 10 11 7 4 4 4 4 4 nan
nan 4 4 6 7 6 7 7 7 10 9 9 9 7 7 7 7 7 8 9 11 9 7 9 7 7 7 6 6 8 6 7 7 8 11 12 7 5 5 4 4 4 nan
nan 7 6 6 7 8 8 6 7 7 8 8 10 8 6 6 6 7 7 8 8 9 8 7 7 8 6 6 6 6 6 6 6 8 13 13 7 6 6 5 4 4 nan
nan 11 10 11 9 7 7 7 8 7 7 8 9 9 7 6 6 7 7 7 7 8 8 7 7 7 7 6 6 7 6 6 5 6 12 14 8 8 7 7 5 5 nan
nan 8 10 10 11 10 8 7 7 8 7 8 9 9 9 8 6 6 7 7 7 7 7 8 7 7 7 7 6 7 6 6 8 6 7 13 14 8 8 7 7 6 nan
nan 5 6 7 9 11 10 9 9 7 7 8 8 9 8 8 8 7 7 8 8 8 7 6 7 7 7 8 9 7 8 7 7 7 6 9 14 12 11 8 7 7 nan
nan 5 6 7 7 8 10 11 8 7 8 7 8 9 9 8 8 9 10 8 8 8 8 7 8 7 7 7 8 8 8 9 8 7 7 7 8 12 14 12 9 8 nan
nan 6 7 7 7 8 10 11 11 9 8 8 8 8 9 9 10 9 8 11 9 8 8 8 7 8 7 7 7 7 8 9 9 8 8 8 7 6 11 15 14 10 nan
nan 8 9 8 7 10 11 10 11 11 10 10 8 7 7 8 10 9 9 9 9 9 7 9 8 6 7 10 11 9 9 8 8 9 9 8 8 9 8 8 11 15 nan
nan 8 10 8 10 10 10 10 11 11 9 9 10 9 8 8 8 8 8 10 9 9 9 7 7 8 5 6 7 11 12 11 9 7 9 8 7 10 9 8 6 8 nan
nan 10 10 9 9 10 9 9 8 10 11 10 10 12 10 8 7 8 9 10 9 7 8 10 8 6 8 8 2 8 10 9 13 10 6 8 6 7 8 8 8 7 nan
nan 11 11 10 10 12 10 9 8 8 7 9 9 11 11 11 8 9 9 9 9 9 8 9 10 7 6 9 7 2 8 10 9 14 11 9 9 7 8 9 9 9 nan
nan 10 10 11 13 13 12 9 8 8 9 9 8 7 8 11 11 8 8 9 8 9 9 9 9 8 8 6 8 6 4 9 6 9 12 11 13 11 9 10 9 10 nan
nan 11 12 13 17 15 13 9 8 11 10 7 7 8 9 10 11 9 9 8 8 9 11 9 9 9 8 7 5 9 8 5 6 8 7 7 9 11 10 10 10 9 nan
nan nan nan nan nan nan nan nan nan nan nan nan nan nan nan nan nan nan nan nan nan nan nan nan nan nan nan nan nan nan nan nan nan nan nan nan nan nan nan nan nan nan nan
CAPE
245 780 2036 2562 2521 2270 2072 2040 1896 1882 1577 1217 1195 456 178 327 355 266 191 26 19 41 0 44 268 657 555 456 461 729 748 82 211 483 417 523 575 393 103 117 58 0 3
2 910 2073 2748 2691 2341 2294 2152 2401 2140 1923 1690 879 510 61 146 206 227 117 0 24 178 379 103 244 668 581 413 265 430 517 23 40 118 200 371 485 359 389 273 287 3 2
178 1110 1567 2839 2676 2123 1989 2260 2283 2269 2084 1932 1498 880 237 393 476 368 166 55 56 464 595 385 525 473 306 169 334 406 386 38 48 308 345 132 319 529 370 251 153 4 2
3 382 1461 2617 2578 2326 1931 2041 2146 1897 1923 1926 1786 1163 406 602 662 596 359 203 272 555 657 588 359 155 21 76 219 328 290 129 101 144 6 35 192 381 265 79 5 1 1
0 0 1549 2170 2091 2301 2110 1951 2152 1774 1658 1602 1732 1642 868 321 917 848 512 876 981 1007 899 405 177 88 0 19 91 174 47 8 0 0 0 0 0 32 41 8 0 1 0
0 0 1117 1652 1813 1861 2042 1979 2162 2057 1788 1775 1504 1670 1509 654 486 938 1062 901 970 1121 748 355 157 106 47 21 17 25 4 0 0 0 0 0 0 2 0 0 0 0 0
0 0 0 1210 1210 1652 1922 1917 2098 2116 2138 1947 1744 1588 1794 1190 752 883 1274 1028 1209 1063 522 278 98 135 135 47 0 0 0 0 0 0 0 0 0 0 0 0 0 0 0
0 0 0 0 906 1103 1607 1738 1750 1921 2017 1839 1839 1752 1726 1731 1333 1222 1319 1138 1086 892 651 336 97 66 110 10 0 0 0 0 0 0 0 0 0 0 0 0 0 0 0
0 0 0 0 0 711 1087 1266 1621 1891 1890 1818 1749 1626 1583 1550 1439 1421 1406 1208 1085 1037 817 407 55 7 2 0 0 0 0 0 0 0 0 0 4 0 0 0 0 0 0
0 0 0 0 0 0 14 744 826 1067 1165 1398 1325 1165 1126 954 955 1356 1276 996 1084 985 955 666 299 25 11 113 132 0 0 0 0 0 0 0 8 0 0 0 0 0 0
0 0 0 0 0 0 0 32 479 771 859 913 980 918 792 568 689 716 767 632 810 933 946 768 558 312 132 108 135 0 0 0 0 0 0 0 64 0 0 0 0 0 0
0 0 0 0 0 0 0 0 0 169 562 583 560 504 406 411 446 578 616 535 633 716 696 789 602 419 20 0 0 0 0 0 0 0 0 0 101 7 0 0 0 0 0
0 0 0 0 0 0 0 0 0 0 132 314 374 384 293 377 181 123 216 168 237 346 257 473 345 150 0 0 0 0 0 0 0 0 0 0 270 20 18 0 0 0 0
0 0 0 0 0 0 0 0 0 0 8 138 183 186 240 221 128 93 4 39 84 146 100 165 85 25 0 0 0 0 0 0 0 0 0 0 319 325 52 62 8 0 0
0 0 0 0 0 0 0 0 0 0 0 0 41 76 134 174 157 60 31 13 33 29 27 20 18 13 0 0 0 0 0 0 0 0 0 0 1 366 494 316 195 88 2
0 0 0 0 0 0 0 0 0 0 0 0 0 49 72 142 205 44 68 50 52 40 15 6 10 8 2 0 0 0 0 0 0 0 0 0 0 11 376 667 309 284 306
0 0 0 0 0 0 0 0 0 0 0 0 0 0 1 58 213 285 84 162 146 61 25 0 0 0 0 0 0 0 0 0 0 0 0 0 0 0 2 399 495 620 613
0 0 0 0 0 0 0 0 0 0 0 0 0 0 0 27 10 128 121 328 319 203 49 1 0 0 0 0 0 0 0 0 0 0 0 0 0 0 0 3 168 453 663
0 0 0 0 0 0 0 0 0 0 0 0 0 0 0 0 66 43 23 331 455 290 128 49 16 0 0 0 0 0 0 0 0 0 0 0 0 0 0 0 0 12 105
0 0 0 0 0 0 0 0 0 0 0 0 0 0 0 0 0 64 25 22 211 269 193 142 147 49 0 0 0 0 0 0 0 0 0 0 0 0 0 0 0 0 0
0 0 0 0 0 0 0 0 0 0 0 0 0 0 0 0 0 68 43 101 67 216 224 223 177 113 67 0 0 0 0 0 0 0 0 0 0 0 0 0 0 0 0
0 0 0 0 0 0 0 0 0 0 0 0 0 0 0 0 0 0 61 84 134 231 195 159 172 151 97 16 14 0 0 0 0 0 0 0 0 0 0 0 0 0 0
0 0 0 0 0 1 0 0 0 0 0 0 0 0 0 0 0 74 158 128 73 195 284 194 83 169 107 27 55 51 36 0 0 0 0 0 0 0 0 0 0 0 0
0 0 0 0 1 0 0 0 0 0 0 0 0 0 0 23 45 67 127 191 183 212 173 201 137 105 97 95 72 89 12 0 0 0 0 0 0 0 0 0 0 0 0
0 0 0 0 1 0 0 0 1 0 0 0 0 0 0 0 0 32 41 42 86 193 131 188 211 134 173 240 145 112 141 18 0 0 0 0 0 0 0 0 0 0 0
0 0 0 1 1 0 0 3 1 0 0 0 0 0 0 0 0 37 96 89 112 93 95 225 162 147 243 207 180 92 111 121 105 71 39 30 4 4 0 0 0 0 0